Location: Pacheco
(37.9835°N, 122.0752°W)
Time: 09:40:15
(UTC+00:00)

Chandra Rocket (1) - Pass Details

Date: 13 April 2024
Orbit: 293 x 10893 km, 28.4° (Epoch: 23 May)

Event Time Altitude Azimuth Distance (km) Brightness Sun altitude
Exits shadow 12:35:39 13° 213° (SSW) 1,485 3.5 -12.0°
Maximum altitude 12:38:05 26° 159° (SSE) 1,378 3.8 -11.5°
Drops below altitude 10° 12:44:18 10° 106° (ESE) 3,649 6.8 -10.4°
Sets 12:50:32 0° 97° (E) 6,174 8.4 -9.2°
